Regional Weather Roundup
Issued by NWS

Home | Current Version | Previous Version | Graphics & Text | Print | Product List | Glossary On
Versions: 1 2 3 4 5 6 7 8 9 10 11 12 13 14 15 16 17 18 19 20 21 22 23 24 25 26 27 28 29 30 31 32 33 34 35 36 37 38 39 40 41 42 43 44 45 46 47 48 49 50
000
ASUS43 KTOP 180508
RWRKS

WEATHER ROUNDUP FOR KANSAS
NATIONAL WEATHER SERVICE GOODLAND KS
1200 AM CDT WED OCT 18 2017

NOTE:  "FAIR" INDICATES FEW OR NO CLOUDS BELOW 12,000 FEET WITH NO
SIGNIFICANT WEATHER AND/OR OBSTRUCTIONS TO VISIBILITY.

KSZ001>006-013>018-027>032-041>047-180600-
NORTHWEST KANSAS

CITY           SKY/WX    TMP DP  RH WIND       PRES   REMARKS
GOODLAND       CLOUDY    58  32  37 S15       30.03S
HAYS           CLEAR     53  42  66 S6        30.03S
HILL CITY      CLEAR     60  42  51 SW6       30.00F
RUSSELL        CLEAR     57  44  62 S15       30.00F
$$

KSZ061>065-074>080-084>089-180600-
SOUTHWEST KANSAS

CITY           SKY/WX    TMP DP  RH WIND       PRES   REMARKS
DODGE CITY     CLEAR     56  40  55 S12       30.03F
ELKHART          N/A     56  36  47 SW5         N/A
GARDEN CITY    CLEAR     50  41  71 S6        30.02S
GREAT BEND     CLEAR     52  42  69 S9        30.04S
LIBERAL        CLEAR     49  42  77 S10       30.03S
PRATT          PTCLDY    58  40  52 S12       30.05F
$$

KSZ066>073-081>083-090>101-180600-
SOUTHEAST KANSAS

CITY           SKY/WX    TMP DP  RH WIND       PRES   REMARKS
CHANUTE        CLEAR     52  45  77 S8        30.13F
COFFEYVILLE    CLEAR     52  46  80 S6        30.14S
HUTCHINSON     CLEAR     51  45  79 SE8       30.06S
MEDICINE LODGE   N/A     56  43  61 MISG      30.06F
NEWTON         CLEAR     55  45  68 S12       30.08F
PARSONS        CLEAR     53  45  74 CALM      30.15S
WICHITA INTL   CLEAR     54  46  74 S10       30.08S
WICHITA JABRA  CLEAR     54  47  77 S10       30.08F
WICHITA MCCONL CLEAR     54  45  70 S9        30.09S
WINFIELD       CLEAR     54  48  80 S8        30.11F
$$

KSZ007>012-019>026-033>040-048>060-102>105-180600-
NORTHEAST KANSAS

CITY           SKY/WX    TMP DP  RH WIND       PRES   REMARKS
CONCORDIA      CLEAR     57  47  69 S15       30.00F
EMPORIA        CLEAR     53  45  74 S10       30.09S
LAWRENCE       CLEAR     57  47  69 S8        30.09S
MANHATTAN      CLEAR     58  46  64 SW10      30.05R
MARYSVILLE     CLEAR     55  46  71 S9        30.02F
OLATHE IND     CLEAR     54  46  74 S10       30.11S
OLATHE EXE     CLEAR     56  48  74 S8        30.11S
SALINA         CLEAR     60  47  61 S13       30.03F
TOPEKA BILLARD PTCLDY    58  48  69 S10       30.07S
TOPEKA FORBES  CLEAR     58  47  66 S9        30.07F
$$




USA.gov is the U.S. government's official web portal to all federal, state and local government web resources and services.